Location: C.E.K. Mees Observatory
(42.7003°N, 77.4088°W)
Time: 00:32:54
(UTC-05:00)

ISS - Visible Passes

Search period start: 04 December 2020 00:00
Search period end: 14 December 2020 00:00
Orbit: 418 x 420 km, 51.6° (Epoch: 04 December)

Date Brightness Start Highest point End Pass type
(mag) Time Alt. Az. Time Alt. Az. Time Alt. Az.
04 Dec -2.9 18:31:46 10° NW 18:34:14 41° NNW 18:34:14 41° NNW visible
05 Dec -3.1 17:44:15 10° NW 17:47:26 38° NNE 17:48:58 24° ENE visible
05 Dec -0.7 19:21:09 10° WNW 19:21:58 15° W 19:21:58 15° W visible
06 Dec -3.2 18:33:22 10° WNW 18:36:40 54° SW 18:36:54 52° SSW visible
07 Dec -3.8 17:45:43 10° WNW 17:49:05 89° N 17:52:08 12° SE visible
07 Dec -0.5 19:24:11 10° WSW 19:25:09 11° SW 19:25:09 11° SW visible
08 Dec -1.1 18:35:30 10° W 18:37:59 19° SW 18:40:27 10° S visible
09 Dec -1.9 17:47:27 10° WNW 17:50:30 32° SW 17:53:31 10° SSE visible
11 Dec -0.3 17:50:23 10° WSW 17:51:37 12° SW 17:52:52 10° SSW visible
